Location: Unspecified
(0.0000°N, 0.0000°E)
Time: 15:03:59
(UTC+00:00)

GONETS M 13 (M23) - Visible Passes

Search period start: 15 April 2024 00:00
Search period end: 25 April 2024 00:00
Orbit: 1485 x 1504 km, 82.5° (Epoch: 15 April)

Date Brightness Start Highest point End Pass type
(mag) Time Alt. Az. Time Alt. Az. Time Alt. Az.
19 Apr ? 21:18:25 17° N 21:18:25 17° N 21:20:03 10° N visible
20 Apr ? 20:28:21 21° NNE 20:28:21 21° NNE 20:30:45 10° NNE visible
21 Apr ? 19:38:06 16° NE 19:38:06 16° NE 19:39:58 10° NE visible
21 Apr ? 21:33:53 24° NW 21:33:53 24° NW 21:37:24 10° NNW visible
22 Apr ? 20:43:19 47° N 20:43:19 47° N 20:49:03 10° N visible
23 Apr ? 19:42:45 10° SSE 19:52:13 46° ENE 19:59:23 10° NNE visible
23 Apr ? 21:47:54 21° W 21:47:54 21° W 21:53:41 10° NW visible
24 Apr ? 18:55:47 10° SE 19:01:55 21° E 19:07:59 10° NE visible
24 Apr ? 20:50:00 10° SSW 20:58:19 48° W 21:06:40 10° NNW visible
